Flag for Belarus Weather past 2 weeks in Barysaw, Belarus

Now
57 °F

Passing clouds.


Feels Like: 57 °F
Forecast: 55 / 68 °F
Wind: 3 mph from West

Location: Minsk

Current Time: Aug 1, 2015 at 2:38:10 AM

Latest Report: Aug 1, 2015 at 2:00 AM


Visibility: N/A

Pressure: 29.98 "Hg

Humidity: 82%

Dew point: 52 °F

Location of BarysawLocation

Historic Weather in Barysaw — Graph

°F

Barysaw temperature yesterday

Maximum temperature yesterday: 70 °F (at 1:30 PM)
Minimum temperature yesterday: 52 °F (at 5:30 AM)
Average temperature yesterday: 62 °F

Past Weeks' High & Low Weather Summary

 TemperatureHumidityPressure
High84 °F (Jul 26, 12:30 PM)100% (Jul 17, 5:00 AM)30.07 "Hg (Jul 17, 5:00 AM)
Low46 °F (Jul 17, 5:00 AM)28% (Jul 19, 2:00 PM)29.53 "Hg (Jul 20, 6:00 AM)
Average64 °F69%29.85 "Hg
* Reported Jul 17 1:00 AM — Aug 1 1:30 AM, Barysaw, Weather by CustomWeather, © 2015

Note: Actual official high and low records may vary slightly from our data, if they occured in-between our weather recording intervals... More about our weather records

Advertising

Barysaw weather history for previous 24 hours

 ConditionsComfort  
Time TempWeatherWind HumidityBarometerVisibility
1:30 AM
Sat, Aug 1
55 °FClear.1 mph82%29.98 "Hg10 mi
1:00 AM57 °FPassing clouds.3 mph77%29.98 "HgN/A
12:30 AM57 °FPassing clouds.3 mph77%29.95 "HgN/A
12:00 AM59 °FPassing clouds.3 mph72%29.95 "HgN/A
11:30 PM
Fri, Jul 31
59 °FPassing clouds.8 mph68%29.95 "HgN/A
11:00 PM61 °FPassing clouds.6 mph59%29.95 "HgN/A
10:30 PM63 °FPassing clouds.8 mph56%29.95 "HgN/A
10:00 PM63 °FPassing clouds.6 mph59%29.95 "HgN/A
9:30 PM64 °FPassing clouds.6 mph56%29.95 "HgN/A
9:00 PM64 °FBroken clouds.6 mph52%29.92 "HgN/A
8:30 PM64 °FBroken clouds.3 mph49%29.92 "HgN/A
8:00 PM66 °FBroken clouds.3 mph46%29.92 "HgN/A
7:30 PM66 °FPassing clouds.6 mph46%29.92 "HgN/A
7:00 PM66 °FPassing clouds.6 mph46%29.92 "HgN/A
6:30 PM68 °FPassing clouds.6 mph43%29.89 "HgN/A
6:00 PM68 °FPassing clouds.8 mph43%29.89 "HgN/A
5:30 PM68 °FPassing clouds.8 mph40%29.89 "HgN/A
5:00 PM68 °FPassing clouds.8 mph40%29.89 "HgN/A
4:30 PM70 °FPassing clouds.8 mph35%29.89 "HgN/A
4:00 PM70 °FPassing clouds.8 mph38%29.89 "HgN/A
3:30 PM70 °FPassing clouds.10 mph38%29.89 "HgN/A
3:00 PM70 °FPassing clouds.8 mph38%29.92 "HgN/A
2:30 PM70 °FPassing clouds.8 mph38%29.89 "HgN/A
2:00 PM68 °FPassing clouds.10 mph40%29.89 "HgN/A
1:30 PM70 °FPassing clouds.8 mph35%29.89 "HgN/A
1:00 PM68 °FPassing clouds.10 mph38%29.89 "HgN/A
12:30 PM68 °FPassing clouds.8 mph40%29.89 "HgN/A
12:00 PM68 °FPartly sunny.10 mph40%29.89 "HgN/A
11:30 AM68 °FPartly sunny.8 mph43%29.89 "HgN/A
11:00 AM66 °FPartly sunny.8 mph49%29.89 "HgN/A
10:30 AM64 °FPartly sunny.10 mph52%29.92 "HgN/A
10:00 AM63 °FPartly sunny.8 mph56%29.89 "HgN/A
9:30 AM63 °FScattered clouds.8 mph59%29.89 "HgN/A
9:00 AM61 °FScattered clouds.6 mph63%29.89 "HgN/A
8:30 AM59 °FPassing clouds.6 mph68%29.89 "HgN/A
8:00 AM57 °FPassing clouds.3 mph72%29.89 "HgN/A
7:30 AM55 °FSunny.3 mph77%29.89 "Hg10 mi
7:00 AM54 °FSunny.1 mph77%29.89 "Hg10 mi
6:30 AM54 °FPassing clouds.3 mph77%29.86 "HgN/A
6:00 AM52 °FPassing clouds.3 mph82%29.86 "HgN/A
5:30 AM52 °FClear.No wind82%29.86 "Hg10 mi
5:00 AM54 °FClear.No wind77%29.86 "Hg10 mi
4:30 AM54 °FPassing clouds.3 mph82%29.86 "HgN/A
4:00 AM55 °FClear.3 mph77%29.86 "Hg10 mi
3:30 AM55 °FPassing clouds.3 mph77%29.86 "HgN/A
3:00 AM55 °FPassing clouds.3 mph72%29.86 "HgN/A
2:30 AM55 °FPassing clouds.3 mph77%29.83 "HgN/A
2:00 AM55 °FClear.1 mph77%29.83 "Hg10 mi
Weather by CustomWeather, © 2015

See weather overviewHow to use our weather pages